Flag for U.S.A. Weather past 2 weeks in Citrus Heights, California, U.S.A.

Now
64 °F

Passing clouds.


Feels Like: 64 °F
Forecast: 58 / 90 °F
Wind: 6 mph from Southwest

Location: Mather Field

Current Time: Aug 5, 2015 at 1:36:50 AM

Latest Report: Aug 4, 2015 at 10:45 PM


Visibility: 10 mi

Pressure: 29.99 "Hg

Humidity: 73%

Dew point: 55 °F

Location of Citrus HeightsLocation

Historic Weather in Citrus Heights — Graph

°F

Citrus Heights temperature yesterday

Maximum temperature yesterday: 77 °F (at 12:57 PM)
Minimum temperature yesterday: 59 °F (at 2:55 AM)
Average temperature yesterday: 69 °F

Past Weeks' High & Low Weather Summary

 TemperatureHumidityPressure
High104 °F (Jul 29, 3:45 PM)94% (Jul 26, 4:45 AM)30.09 "Hg (Jul 26, 4:45 AM)
Low54 °F (Jul 25, 5:45 AM)11% (Jul 27, 5:45 PM)29.74 "Hg (Jul 21, 6:45 PM)
Average76 °F50%29.90 "Hg
* Reported Jul 20 10:50 PM — Aug 4 10:45 PM, Citrus Heights, Weather by CustomWeather, © 2015

Note: Actual official high and low records may vary slightly from our data, if they occured in-between our weather recording intervals... More about our weather records

Advertising

Citrus Heights weather history for previous 24 hours

 ConditionsComfort  
Time TempWeatherWind HumidityBarometerVisibility
10:45 PM
Tue, Aug 4
64 °FPassing clouds.6 mph73%29.99 "Hg10 mi
9:45 PM68 °FPassing clouds.6 mph60%29.98 "Hg10 mi
8:45 PM68 °FPartly sunny.5 mph60%29.96 "Hg10 mi
7:45 PM73 °FOvercast.6 mph50%29.95 "Hg10 mi
6:45 PM75 °FOvercast.13 mph47%29.94 "Hg10 mi
5:45 PM73 °FOvercast.13 mph50%29.94 "Hg10 mi
3:45 PM75 °FOvercast.6 mph44%29.94 "Hg10 mi
2:45 PM75 °FSunny.9 mph44%29.96 "Hg10 mi
1:45 PM75 °FOvercast.10 mph47%29.98 "Hg10 mi
12:57 PM77 °FPartly sunny.10 mph44%29.97 "Hg10 mi
11:55 AM75 °FScattered clouds.13 mph47%29.97 "Hg10 mi
10:45 AM73 °FScattered clouds.10 mph50%29.96 "Hg10 mi
9:45 AM72 °FScattered clouds.10 mph57%29.95 "Hg10 mi
8:45 AM66 °FScattered clouds.8 mph68%29.96 "Hg10 mi
7:47 AM63 °FScattered clouds.7 mph73%29.95 "Hg10 mi
6:57 AM59 °FPassing clouds.8 mph82%29.94 "Hg10 mi
5:53 AM59 °FPassing clouds.8 mph88%29.93 "Hg10 mi
4:45 AM61 °FClear.8 mph83%29.92 "Hg10 mi
3:55 AM59 °FClear.7 mph88%29.92 "Hg10 mi
2:55 AM59 °FClear.8 mph82%29.92 "Hg10 mi
Weather by CustomWeather, © 2015

See weather overviewHow to use our weather pages